Location: Dötzum
(52.0808°N, 9.8063°E)
Time: 05:33:21
(UTC+00:00)

ERBS - Pass Details

Date: 27 May 2022
Orbit: 360 x 377 km, 57.0° (Epoch: 24 June)

Event Time Altitude Azimuth Distance (km) Brightness Sun altitude
Exits shadow 00:54:40 30° 216° (SW) 698 2.8 -13.7°
Maximum altitude 00:55:57 61° 146° (SSE) 425 2.1 -13.6°
Drops below altitude 10° 00:58:59 10° 66° (ENE) 1,381 5.6 -13.4°
Sets 01:01:02 0° 62° (ENE) 2,240 6.8 -13.3°
